Temperature
23 22 21 20 19 19 18 18 18 18 18 18 18 18 18 18 18 18 18 18 17 18 18 18 18 18 18 18 17 18 18 18 18 18 18 18 18 18 18 18 17 17 17
23 22 21 20 19 19 18 18 18 18 18 18 18 18 18 18 18 18 17 17 17 18 18 18 18 18 18 17 17 17 17 18 18 18 18 18 18 18 18 18 18 18 17
23 21 20 20 19 19 18 18 18 18 18 18 18 18 17 17 18 17 17 17 17 17 18 18 18 18 18 17 17 17 18 18 18 18 18 18 18 18 18 18 18 18 17
23 22 20 20 19 19 18 18 18 18 18 18 18 18 18 18 18 18 18 17 17 17 17 17 17 17 17 17 17 17 17 18 18 18 18 18 18 18 18 18 18 18 18
24 22 21 20 19 19 18 18 18 18 18 18 18 18 18 18 18 17 17 17 17 17 17 17 17 17 17 17 17 17 17 17 18 18 18 18 18 18 18 18 18 18 18
24 22 21 20 20 19 19 18 18 18 18 18 18 18 18 18 18 17 17 17 18 18 17 17 17 17 17 17 17 17 17 17 17 18 18 18 18 18 18 18 18 18 18
24 23 22 20 20 19 19 18 18 18 18 18 18 18 18 18 18 18 17 17 17 17 17 17 17 17 17 17 17 17 17 17 17 17 18 18 18 18 18 18 18 18 18
24 23 22 21 20 19 19 18 18 18 18 18 18 18 18 18 17 18 18 18 18 18 17 17 17 17 17 17 17 17 17 17 17 17 17 17 18 18 18 18 18 18 18
24 23 22 21 20 19 19 19 18 18 18 18 18 18 18 18 17 18 18 18 18 18 18 17 17 17 17 17 17 17 16 17 17 17 17 17 17 17 18 18 18 18 18
25 24 22 21 20 20 19 19 18 18 18 18 18 18 18 18 18 18 18 18 18 18 17 17 17 17 17 17 17 17 17 16 16 17 17 17 17 17 17 17 17 17 17
25 24 23 22 21 20 19 19 18 18 18 18 18 18 18 18 18 18 17 17 17 17 17 17 17 17 17 17 17 17 16 16 16 16 16 16 16 17 17 17 17 17 17
25 24 23 22 21 20 19 19 18 18 18 18 18 18 18 17 18 17 17 17 17 17 17 17 17 17 17 17 17 17 16 16 16 16 16 16 16 16 16 16 16 16 16
25 24 23 22 21 20 20 19 19 18 18 18 18 17 17 17 17 17 17 17 17 17 17 17 17 17 16 16 16 16 16 16 16 16 16 16 16 16 16 16 16 16 16
24 24 23 22 21 20 20 19 19 18 18 18 18 17 17 17 17 17 17 17 17 17 16 16 16 16 16 16 16 16 16 16 16 15 15 15 15 15 15 15 15 15 15
24 23 22 21 21 20 20 19 19 18 18 18 17 17 17 17 17 17 16 16 16 16 16 16 16 16 16 16 16 16 15 15 15 15 15 14 14 14 14 14 14 14 14
24 23 22 21 20 20 19 19 18 18 18 17 17 17 17 17 16 16 16 16 16 16 16 16 16 16 15 15 15 15 15 15 14 14 14 14 14 14 14 14 13 13 13
23 22 21 21 20 19 19 18 18 18 17 17 17 17 16 16 16 16 16 16 15 15 15 15 15 15 15 15 15 14 14 14 14 13 13 13 13 13 13 13 13 12 12
22 21 21 20 19 19 18 18 18 17 17 17 16 16 16 16 15 15 15 15 15 15 15 15 14 14 14 14 14 14 14 13 13 13 12 12 12 12 12 12 12 11 11
21 20 20 20 19 18 18 18 18 17 17 16 16 16 16 15 15 15 15 15 14 14 14 14 14 13 13 13 13 13 13 13 12 12 12 11 11 11 11 11 10 10 10
20 19 19 19 18 18 18 17 17 16 16 16 16 15 15 15 15 15 14 14 14 14 13 13 13 13 12 12 12 12 12 12 11 11 11 11 10 10 10 10 10 9 9
19 19 18 18 18 17 17 17 16 16 16 15 15 15 15 15 14 14 14 14 13 13 13 12 12 12 12 11 11 11 11 11 10 10 10 10 9 9 9 9 9 8 8
18 18 18 17 17 17 17 16 16 15 15 15 15 14 14 14 14 14 13 13 13 12 12 12 11 11 10 10 10 10 10 10 10 9 9 9 9 9 8 8 8 8 8
17 17 17 16 16 16 16 16 15 15 15 14 14 14 13 13 13 13 12 12 12 11 11 11 10 10 10 9 9 9 9 9 9 9 8 8 8 8 8 7 7 7 7
17 16 16 16 15 15 15 15 15 14 14 14 13 13 13 12 12 12 11 11 11 11 10 10 9 9 9 9 8 8 8 8 8 8 8 8 8 7 7 7 7 7 6
16 15 15 15 14 14 14 14 14 14 13 13 12 12 12 12 11 11 11 11 11 10 10 10 9 9 8 8 8 8 8 8 8 8 7 7 7 7 7 7 6 6 6
15 14 14 14 13 13 13 13 13 13 13 12 12 11 11 11 10 10 10 9 9 9 9 9 9 8 8 8 7 7 7 7 7 7 7 7 7 7 7 6 6 6 5
Wind_Speed
10 11 11 12 12 12 12 11 11 10 8 7 6 5 5 4 4 5 8 8 7 7 4 3 4 2 3 4 4 3 4 2 2 1 2 2 4 4 4 3 3 6 8
11 12 11 12 13 13 12 11 10 11 10 7 5 5 5 4 5 4 6 8 8 8 7 4 4 3 3 3 2 1 1 3 4 2 1 1 1 2 5 4 5 5 6
13 13 12 11 12 12 13 12 11 10 10 9 6 5 3 3 4 5 5 6 8 7 4 6 4 4 4 4 4 4 3 2 2 2 2 1 2 2 2 4 4 4 4
13 13 12 12 12 12 12 11 11 10 10 9 9 9 7 6 5 5 5 6 7 7 6 6 4 3 3 5 5 5 3 3 2 2 2 1 2 1 1 2 3 6 6
13 13 13 13 12 12 12 11 10 10 10 9 10 9 7 6 5 5 7 6 5 6 7 6 5 4 3 4 4 3 2 2 3 2 2 3 2 2 2 2 2 3 4
12 12 12 12 10 11 11 11 11 10 10 10 9 9 8 7 6 6 7 6 5 5 6 6 5 5 4 3 3 3 3 2 2 2 1 1 2 2 2 2 3 3 3
12 12 12 12 10 10 11 11 11 10 10 10 9 9 8 7 7 7 7 6 6 6 6 7 5 5 4 4 4 4 3 3 3 2 2 1 1 1 1 0 1 1 2
12 12 11 11 10 10 10 11 11 10 10 9 8 8 8 6 6 7 6 6 5 6 7 7 6 6 5 5 4 4 5 4 3 4 3 2 2 1 1 1 0 1 2
12 12 12 11 10 10 10 11 10 9 9 9 8 7 7 6 6 6 6 5 4 5 7 7 7 6 6 4 4 4 4 4 4 4 4 3 2 2 2 1 1 1 1
12 12 12 12 10 9 9 10 10 8 8 7 7 8 7 7 6 5 6 5 5 4 6 7 7 7 6 6 5 4 4 5 4 3 2 2 2 2 1 1 2 2 1
12 11 11 11 10 10 10 9 9 8 7 7 6 5 6 7 6 5 5 5 4 4 5 5 6 6 6 6 6 5 5 5 4 3 2 2 0 2 2 2 2 2 1
12 12 11 11 10 10 10 9 9 8 8 7 6 6 6 6 6 6 5 5 4 4 4 4 5 5 5 5 5 5 4 4 4 2 1 1 1 0 2 2 2 2 1
11 12 11 10 9 9 9 9 9 8 8 7 6 6 5 5 5 5 4 4 5 4 4 4 4 3 3 4 5 4 3 3 3 3 3 2 2 2 2 2 3 3 3
11 11 10 9 9 8 8 7 7 7 7 7 6 5 5 5 5 4 4 4 4 4 3 3 3 3 3 4 4 4 4 5 5 5 5 5 4 4 3 3 3 3 3
10 10 10 9 8 8 7 7 7 6 6 6 6 5 5 5 4 4 4 4 4 4 4 4 4 4 4 3 5 5 5 6 6 6 7 8 11 11 8 5 5 4 4
10 10 10 9 8 8 7 7 6 6 6 6 5 6 6 5 4 4 5 5 5 5 5 5 5 6 4 6 7 6 6 7 7 7 7 8 9 12 14 15 14 11 7
8 9 9 8 8 7 6 7 7 6 6 6 6 7 7 6 5 6 6 6 6 7 7 7 8 8 7 9 10 10 8 8 7 6 6 7 7 8 8 10 12 14 14
8 7 8 8 8 7 8 8 8 7 7 7 6 7 7 7 7 6 7 7 7 7 7 7 7 8 8 9 10 11 10 9 8 8 7 8 7 7 7 9 10 9 9
7 6 6 8 7 7 7 8 8 7 7 7 7 7 8 8 8 8 8 7 8 8 8 8 8 8 8 9 9 10 9 9 9 9 9 8 7 9 9 8 8 7 6
7 6 6 8 8 7 7 7 7 7 7 7 7 7 8 8 9 9 8 8 8 9 8 9 8 8 8 9 9 8 8 9 9 9 9 13 11 11 11 8 7 6 4
8 7 6 7 7 7 8 8 8 8 8 8 9 9 8 9 9 9 8 9 9 10 9 10 9 9 9 10 11 9 6 8 8 8 8 7 11 12 11 9 6 4 2
8 8 7 8 7 7 8 9 8 8 9 10 10 9 9 9 9 10 9 9 10 10 9 9 9 8 8 9 10 11 10 9 9 8 7 7 10 10 10 7 6 6 4
7 7 8 9 8 7 8 10 9 9 11 11 11 10 10 9 9 9 9 8 7 8 8 8 8 8 7 9 14 15 15 14 9 8 10 9 8 6 4 4 5 4 4
7 7 8 9 8 8 9 10 10 11 12 12 11 10 10 10 10 8 7 6 6 7 7 8 8 8 7 7 6 7 9 11 10 7 7 5 3 2 1 1 2 2 4
6 7 8 9 10 9 9 9 10 11 12 12 11 11 11 11 11 11 10 9 8 6 7 7 7 8 7 5 6 5 5 5 6 4 3 3 2 2 3 3 3 3 4
7 8 9 10 10 10 10 9 9 11 12 12 11 10 10 10 11 12 13 19 16 19 18 13 11 9 10 10 11 11 10 8 5 2 2 3 3 4 4 4 3 4 5
Wind_Direction
156 149 151 154 156 157 160 165 169 166 167 170 169 171 171 178 170 165 159 163 173 170 169 154 156 193 157 156 156 155 164 188 191 172 156 196 188 185 181 191 179 184 190
152 151 154 157 161 163 164 166 172 171 173 173 170 171 172 180 174 164 153 166 177 180 173 167 173 177 145 151 165 157 185 207 191 185 151 201 207 220 198 183 191 186 185
157 157 157 157 162 168 171 175 175 173 178 171 167 165 155 173 168 160 163 180 183 184 180 167 186 176 175 170 188 185 202 228 206 188 177 171 193 208 214 201 184 180 183
155 156 161 166 171 173 173 173 174 176 174 172 171 170 176 181 179 169 169 186 188 182 184 175 178 177 185 167 193 189 197 202 228 199 196 164 122 151 191 233 193 189 191
152 157 163 167 171 172 170 170 170 173 175 178 177 180 185 185 184 171 169 183 188 193 188 176 176 190 205 173 176 148 195 215 229 226 199 190 181 216 189 206 206 206 197
148 153 157 159 166 168 167 169 170 173 176 182 185 187 188 183 182 180 176 185 184 194 195 181 181 190 201 171 160 159 194 232 265 284 263 197 191 222 214 204 208 211 210
150 153 156 159 163 167 168 169 168 171 176 182 188 189 189 185 186 186 190 191 186 189 192 184 179 191 189 173 174 177 213 210 226 255 284 293 262 241 255 233 250 234 210
150 152 154 156 163 166 166 166 167 169 176 181 184 186 184 191 190 194 195 197 196 188 173 173 181 189 190 193 179 188 201 199 205 229 245 290 285 285 272 232 272 286 263
150 153 154 155 163 165 166 167 163 168 177 180 180 185 190 193 188 188 194 196 198 185 170 176 184 188 188 191 175 204 207 172 193 223 218 238 274 270 287 323 336 285 286
150 151 151 154 159 161 158 156 157 166 172 174 181 187 188 185 186 193 199 193 194 189 171 183 187 187 185 188 192 207 196 177 194 217 217 210 283 311 329 13 357 356 302
150 148 147 150 154 153 153 154 156 161 168 176 180 176 177 181 187 197 198 184 180 172 172 185 191 189 190 191 194 210 196 186 193 218 209 183 293 6 10 17 7 358 355
148 143 140 144 149 151 153 157 162 168 171 171 169 169 173 175 182 190 189 179 179 179 179 184 191 198 190 186 191 200 192 173 175 187 146 139 200 87 358 6 352 347 4
143 141 143 144 146 145 148 156 165 166 168 166 169 167 172 173 173 171 173 173 176 180 174 177 188 199 179 164 167 164 148 132 125 112 92 71 50 48 38 23 360 357 357
140 143 139 137 138 138 142 150 157 157 161 163 164 160 166 162 161 160 163 164 159 159 153 153 164 155 140 139 141 138 127 112 99 91 84 73 63 50 39 35 14 355 354
142 139 138 135 137 141 148 152 150 147 147 149 149 143 140 131 135 134 131 122 124 136 120 114 108 103 107 116 123 123 127 118 105 93 87 80 78 70 64 60 39 27 28
147 143 142 143 147 147 150 144 138 136 137 140 138 131 128 126 125 126 120 111 106 102 101 97 94 87 89 86 99 114 114 111 110 108 102 96 85 82 79 73 64 55 52
136 141 143 140 140 146 149 145 137 135 135 133 127 125 126 122 116 119 111 106 102 95 90 88 89 86 73 76 87 95 98 95 95 95 92 91 78 80 87 82 72 59 54
125 127 138 139 143 145 141 135 136 135 135 131 126 124 124 120 117 111 106 102 100 99 96 94 94 88 74 77 88 96 95 88 83 84 89 90 76 65 79 85 76 65 54
113 114 125 132 131 132 132 138 138 136 135 131 126 124 126 125 121 115 108 106 102 96 93 90 89 88 76 73 88 101 102 94 82 72 67 73 71 58 70 88 91 86 76
103 104 112 115 118 117 122 126 126 121 119 119 117 116 119 121 117 114 111 106 101 96 91 86 83 84 78 64 75 94 109 105 97 85 73 65 68 61 58 74 77 73 53
102 99 97 105 111 117 119 116 112 111 110 106 103 103 106 109 109 107 105 106 104 100 94 90 82 77 75 69 69 78 99 111 105 95 83 70 68 64 59 65 70 62 8
104 104 98 96 98 108 115 115 112 111 110 108 106 104 102 104 106 105 103 106 110 108 105 99 88 76 70 70 74 75 77 92 97 96 95 93 83 72 63 62 47 29 15
105 105 106 100 93 96 106 113 111 111 108 105 103 101 98 95 101 107 112 114 113 113 113 109 103 95 89 80 76 77 79 82 90 97 108 112 105 88 73 68 42 28 27
103 108 113 109 100 96 98 106 110 112 113 110 105 102 98 91 82 78 80 89 99 110 113 111 110 107 98 94 95 96 96 99 100 108 116 120 118 113 89 66 52 63 49
103 103 107 109 105 102 101 106 113 116 113 109 105 100 95 94 83 74 64 71 61 81 103 108 110 113 103 85 89 105 103 104 105 123 146 154 150 137 120 98 77 63 49
105 106 108 110 108 105 102 103 110 116 117 114 110 106 105 103 101 95 80 61 67 67 69 78 93 90 97 96 80 76 76 77 69 72 106 97 81 73 71 69 69 64 50
Height
1488 1490 1493 1495 1497 1500 1503 1507 1511 1515 1518 1522 1526 1529 1533 1536 1539 1541 1543 1546 1548 1550 1552 1555 1556 1558 1560 1562 1563 1565 1566 1568 1569 1571 1572 1573 1573 1574 1575 1576 1577 1578 1579
1486 1489 1492 1494 1497 1499 1503 1506 1509 1513 1517 1521 1524 1528 1531 1535 1538 1540 1542 1544 1547 1549 1552 1553 1555 1557 1559 1561 1562 1563 1565 1567 1568 1570 1571 1572 1574 1573 1574 1575 1576 1577 1578
1484 1488 1491 1494 1496 1499 1501 1504 1508 1512 1516 1520 1523 1527 1530 1533 1536 1539 1540 1543 1545 1548 1550 1552 1554 1556 1558 1559 1561 1562 1564 1566 1567 1569 1570 1570 1571 1572 1573 1574 1575 1576 1576
1482 1486 1490 1493 1496 1498 1501 1504 1507 1510 1514 1518 1521 1524 1527 1530 1534 1537 1539 1541 1544 1546 1548 1550 1552 1554 1556 1557 1559 1561 1563 1564 1566 1567 1568 1569 1570 1571 1572 1573 1573 1574 1575
1480 1485 1488 1491 1495 1497 1500 1502 1505 1509 1512 1516 1519 1522 1526 1529 1532 1535 1537 1539 1542 1544 1546 1548 1550 1552 1554 1556 1557 1559 1561 1563 1564 1566 1567 1568 1569 1570 1571 1571 1572 1573 1573
1479 1484 1487 1491 1494 1497 1499 1501 1504 1507 1511 1514 1518 1521 1524 1527 1530 1533 1535 1537 1540 1542 1544 1546 1548 1550 1552 1554 1556 1557 1559 1561 1563 1564 1565 1567 1568 1568 1569 1570 1570 1571 1572
1479 1483 1487 1490 1492 1495 1497 1500 1502 1505 1509 1512 1516 1519 1522 1525 1528 1530 1533 1535 1537 1539 1541 1544 1546 1548 1550 1552 1553 1555 1557 1559 1560 1562 1563 1565 1566 1567 1568 1568 1569 1569 1570
1478 1482 1486 1489 1491 1494 1496 1499 1501 1504 1508 1511 1514 1517 1520 1523 1526 1529 1531 1533 1536 1538 1540 1542 1543 1546 1548 1550 1551 1553 1555 1556 1558 1560 1561 1563 1564 1565 1566 1567 1568 1568 1568
1478 1481 1485 1488 1490 1493 1495 1497 1500 1503 1507 1510 1513 1515 1518 1521 1523 1526 1529 1531 1534 1536 1538 1540 1541 1543 1545 1547 1549 1551 1552 1554 1556 1557 1559 1560 1562 1563 1564 1565 1566 1567 1566
1477 1481 1484 1487 1490 1492 1494 1497 1499 1503 1506 1508 1511 1514 1516 1519 1521 1524 1526 1529 1531 1534 1536 1537 1539 1541 1543 1545 1546 1548 1550 1552 1553 1555 1557 1558 1560 1561 1562 1563 1564 1564 1565
1476 1480 1484 1487 1490 1492 1495 1497 1500 1502 1504 1507 1509 1512 1514 1517 1519 1522 1524 1526 1529 1531 1533 1535 1537 1539 1540 1542 1544 1546 1547 1549 1551 1553 1554 1555 1557 1558 1559 1560 1561 1562 1562
1475 1479 1484 1487 1490 1493 1495 1498 1500 1502 1504 1506 1508 1511 1513 1515 1517 1519 1521 1524 1526 1528 1530 1533 1534 1536 1538 1539 1541 1543 1545 1547 1548 1550 1551 1553 1554 1555 1557 1557 1558 1559 1560
1475 1479 1483 1487 1490 1493 1495 1498 1500 1502 1504 1506 1508 1510 1512 1514 1515 1517 1519 1521 1523 1525 1528 1530 1531 1533 1535 1537 1538 1541 1542 1544 1545 1547 1548 1550 1551 1553 1554 1554 1556 1556 1557
1475 1479 1483 1487 1490 1493 1495 1497 1500 1502 1504 1506 1507 1509 1510 1512 1514 1516 1518 1520 1521 1523 1525 1527 1528 1530 1532 1534 1536 1538 1539 1541 1543 1544 1546 1547 1548 1550 1551 1552 1552 1553 1554
1476 1479 1483 1486 1489 1492 1495 1497 1499 1501 1503 1505 1506 1508 1509 1511 1513 1515 1516 1518 1520 1522 1523 1525 1526 1528 1530 1531 1533 1535 1537 1538 1540 1542 1544 1545 1546 1547 1549 1549 1550 1551 1551
1475 1479 1483 1486 1489 1492 1494 1496 1498 1500 1502 1503 1505 1507 1509 1510 1512 1514 1516 1517 1519 1521 1522 1524 1525 1526 1528 1530 1531 1533 1535 1536 1538 1540 1541 1542 1544 1545 1546 1547 1548 1549 1549
1475 1479 1482 1485 1489 1491 1494 1496 1498 1500 1501 1503 1505 1506 1508 1510 1511 1513 1515 1516 1518 1520 1521 1522 1524 1525 1527 1529 1530 1532 1533 1534 1536 1538 1539 1541 1542 1543 1544 1545 1546 1546 1547
1476 1479 1482 1485 1488 1491 1493 1495 1497 1499 1501 1502 1504 1506 1507 1509 1511 1512 1514 1516 1517 1519 1520 1522 1523 1524 1526 1528 1529 1530 1532 1533 1535 1537 1538 1540 1541 1542 1543 1543 1544 1545 1545
1475 1479 1483 1485 1487 1490 1492 1494 1497 1498 1500 1502 1504 1505 1507 1508 1510 1512 1513 1515 1517 1518 1519 1521 1523 1524 1526 1527 1529 1530 1531 1532 1534 1536 1538 1539 1540 1541 1541 1543 1543 1544 1545
1476 1479 1482 1485 1487 1489 1491 1494 1496 1498 1500 1501 1503 1505 1507 1508 1510 1511 1513 1515 1516 1518 1520 1521 1523 1524 1526 1528 1529 1530 1531 1532 1534 1536 1538 1539 1540 1541 1541 1542 1543 1544 1545
1476 1479 1482 1484 1486 1488 1490 1493 1495 1497 1499 1501 1503 1504 1506 1508 1510 1511 1513 1515 1516 1518 1520 1522 1524 1525 1527 1528 1530 1531 1532 1533 1534 1536 1538 1539 1540 1541 1542 1542 1544 1545 1546
1477 1479 1482 1483 1485 1487 1490 1492 1494 1497 1499 1500 1502 1504 1506 1508 1510 1511 1513 1515 1517 1518 1520 1522 1524 1526 1528 1529 1531 1532 1533 1535 1535 1537 1538 1540 1541 1542 1543 1544 1545 1546 1547
1478 1480 1482 1484 1486 1487 1490 1491 1494 1496 1498 1500 1502 1503 1505 1508 1510 1512 1514 1516 1518 1520 1521 1523 1525 1527 1529 1530 1532 1534 1535 1537 1538 1539 1541 1542 1543 1544 1545 1546 1547 1547 1547
1478 1480 1482 1484 1486 1488 1490 1491 1493 1495 1497 1499 1501 1504 1506 1508 1510 1513 1515 1517 1519 1521 1523 1525 1527 1528 1530 1532 1534 1536 1538 1540 1541 1542 1543 1544 1545 1546 1547 1548 1548 1549 1549
1478 1480 1482 1484 1486 1488 1490 1491 1493 1495 1497 1499 1501 1504 1506 1508 1511 1513 1516 1518 1520 1522 1524 1526 1528 1529 1531 1533 1535 1538 1540 1541 1542 1543 1545 1546 1548 1548 1549 1550 1550 1551 1550
1479 1481 1482 1484 1486 1488 1490 1492 1494 1496 1498 1500 1502 1505 1507 1510 1512 1514 1517 1520 1523 1524 1526 1528 1530 1532 1534 1536 1538 1540 1542 1544 1545 1546 1548 1549 1550 1551 1551 1552 1552 1552 1551